[[{"header":{"parameterUnit":"m.s-1","parameterCategory":1,"la1":30.2991,"la2":30.254,"lo1":-89.0895,"lo2":-89.0444,"dy":0.0017,"dx":0.0017,"nx":28,"ny":28,"refTime":"2024-06-08T03:00:00:Z","depth":0,"parameterNumber":2,"parameterNumberName":"U-component_of_WINDS"},"data":[0,0,0,0,0,0,0,0,0,0,0,0,0,0,0,0,0,0,0,0,0,0,0,0,0,0,0,0,0,0,0,0,0,0,0,0,0,0,0,0,0,0,0,0,0,0,0,0,0,0,0,0,0,0,0,0,0,0,-1.1916,-1.1915,0,-1.1829,-1.1828,-1.1827,-1.1751,-1.175,-1.1749,-1.1748,-1.1658,-1.1657,-1.1655,0,0,0,0,0,0,0,0,0,0,0,0,0,-1.2017,-1.2015,-1.1916,-1.1915,-1.1914,-1.1829,-1.1828,-1.1827,-1.1751,-1.175,-1.1749,-1.1748,-1.1659,-1.1657,-1.1655,0,0,0,0,0,0,0,0,0,0,0,0,0,-1.1956,-1.2015,-1.1916,-1.1866,-1.1861,-1.1829,-1.1828,-1.1827,-1.1751,-1.175,-1.1749,-1.1747,-1.166,-1.1657,-1.1655,-1.1666,0,0,-1.1648,-1.1647,0,0,0,0,0,0,0,0,-1.1959,-1.1952,-1.1874,-1.1869,-1.1863,-1.18,-1.183,-1.1773,-1.1752,-1.1793,-1.1748,-1.1747,-1.1706,-1.17,-1.1687,-1.1662,-1.1658,-1.1647,-1.1646,-1.1645,-1.1644,0,0,0,0,0,0,0,-1.1964,-1.1955,-1.1882,-1.1873,-1.1867,-1.1848,-1.1838,-1.1819,-1.1758,-1.1789,-1.1783,-1.1774,-1.1703,-1.1689,-1.1684,-1.1657,-1.1648,-1.1645,-1.1644,-1.1643,-1.1638,-1.1639,0,0,0,0,0,0,-1.1976,-1.1959,-1.1884,-1.1879,-1.1909,-1.1847,-1.1836,-1.1821,-1.1758,-1.1747,-1.1775,-1.1771,-1.1694,-1.1687,-1.1681,-1.1689,-1.1645,-1.1643,-1.1641,-1.1636,-1.1638,-1.1639,0,0,0,0,0,0,-1.1978,-1.197,-1.1888,-1.1918,-1.1906,-1.1847,-1.1831,-1.182,-1.1806,-1.1748,-1.1736,-1.1772,-1.1692,-1.1684,-1.167,-1.1685,-1.1642,-1.164,-1.1635,-1.1637,-1.1639,-1.1706,0,0,0,0,0,0,-1.1981,-1.1971,-1.1975,-1.1918,-1.1905,-1.1879,-1.1832,-1.182,-1.1802,-1.1796,-1.1742,-1.1731,-1.1691,-1.1674,-1.1668,-1.1681,-1.1638,-1.1633,-1.1636,-1.1638,-1.1703,-1.171,-1.1717,0,0,0,0,0,-1.1985,-1.1997,-1.1975,-1.1966,-1.1908,-1.188,-1.1872,-1.1826,-1.1804,-1.1807,-1.1769,-1.1733,-1.1685,-1.1674,-1.1666,-1.1678,-1.1632,-1.1635,-1.1638,-1.1699,-1.1709,-1.1717,0,0,0,0,0,0,-1.2056,-1.1989,-1.1964,-1.1958,-1.1925,-1.1868,-1.187,-1.1837,-1.181,-1.1805,-1.1748,-1.1737,-1.173,-1.1703,-1.1692,-1.1686,-1.1654,-1.1655,-1.1703,-1.1712,-1.1719,-1.1724,-1.1636,0,0,0,0,0,-1.2071,-1.2054,-1.1997,-1.1997,-1.1982,-1.1929,-1.1916,-1.1883,-1.1847,-1.1832,-1.1794,-1.176,-1.1738,-1.1724,-1.1699,-1.17,-1.1686,-1.1704,-1.1711,-1.1718,-1.1719,-1.1716,-1.1723,-1.1649,-1.1649,-1.1649,0,0,-1.2101,-1.2063,-1.2056,-1.201,-1.1981,-1.1965,-1.1918,-1.1903,-1.189,-1.183,-1.1814,-1.1786,-1.1745,-1.1738,-1.1733,-1.1715,-1.1737,-1.1721,-1.1727,-1.1724,-1.172,-1.1727,-1.1733,-1.1651,-1.165,-1.165,0,0,-1.2148,-1.2118,-1.2114,-1.2087,-1.2044,-1.2009,-1.2008,-1.1956,-1.1934,-1.1918,-1.1873,-1.1857,-1.1819,-1.1792,-1.1773,-1.1812,-1.1777,-1.1806,-1.1842,-1.1841,-1.1846,-1.1851,-1.1864,-1.1869,-1.1808,-1.1808,-1.1808,0,-1.2191,-1.2165,-1.2117,-1.2104,-1.2085,-1.2032,-1.2027,-1.2003,-1.1955,-1.1943,-1.1924,-1.1876,-1.1844,-1.183,-1.184,-1.1827,-1.1824,-1.181,-1.185,-1.1854,-1.1858,-1.1869,-1.1874,-1.1811,-1.1811,-1.1811,-1.181,0,-1.2219,-1.2202,-1.2205,-1.2159,-1.2141,-1.2133,-1.2084,-1.2071,-1.2041,-1.2008,-1.1993,-1.1954,-1.192,-1.1915,-1.1885,-1.1897,-1.1887,-1.186,-1.1826,-1.1869,-1.1879,-1.1883,-1.1816,-1.1815,-1.1814,-1.1813,0,0,-1.2305,-1.2235,-1.2236,-1.2215,-1.2165,-1.215,-1.2141,-1.2109,-1.2098,-1.2068,-1.2057,-1.2028,-1.2002,-1.1981,-1.1948,-1.1947,-1.1978,-1.1919,-1.1917,-1.193,-1.1988,-1.2007,-1.2013,-1.1957,-1.1957,-1.1958,-1.1991,0,-1.2342,-1.2321,-1.2278,-1.2269,-1.2253,-1.2202,-1.2193,-1.2162,-1.2132,-1.2113,-1.208,-1.2059,-1.2028,-1.2015,-1.2012,-1.1975,-1.1989,-1.1973,-1.1945,-1.1945,-1.1954,-1.2018,-1.2038,-1.207,-1.1994,-1.1995,-1.1995,0,-1.2382,-1.2354,-1.2344,-1.2295,-1.2287,-1.2279,-1.2247,-1.223,-1.2194,-1.2172,-1.2149,-1.2113,-1.21,-1.2071,-1.2051,-1.2041,-1.2028,-1.2009,-1.2009,-1.2003,-1.1971,-1.2011,-1.208,-1.2084,-1.2001,-1.2001,-1.2,0,-1.2444,-1.2404,-1.2393,-1.2377,-1.232,-1.2316,-1.2292,-1.2254,-1.2238,-1.221,-1.2198,-1.217,-1.2153,-1.2132,-1.2089,-1.2072,-1.2074,-1.2042,-1.2055,-1.2056,-1.2055,-1.2055,-1.212,-1.2051,-1.2051,-1.2051,-1.205,0,-1.2488,-1.2483,-1.242,-1.2413,-1.2406,-1.2358,-1.2353,-1.2325,-1.2292,-1.2278,-1.2234,-1.2222,-1.2167,-1.215,-1.2116,-1.2105,-1.2098,-1.208,-1.207,-1.2082,-1.2084,-1.2071,-1.2066,-1.2052,-1.2052,-1.2051,-1.2051,0,-1.2554,-1.2512,-1.2496,-1.2444,-1.2431,-1.2428,-1.2383,-1.2375,-1.2343,-1.2327,-1.232,-1.227,-1.2246,-1.2202,-1.2167,-1.2144,-1.214,-1.2125,-1.2152,-1.2146,-1.216,-1.2159,-1.2217,-1.2222,-1.2152,-1.2152,-1.2153,0,-1.2584,-1.2579,-1.2527,-1.2515,-1.2493,-1.2474,-1.2457,-1.241,-1.2394,-1.2353,-1.2349,-1.2323,-1.2299,-1.2264,-1.2224,-1.2197,-1.218,-1.2203,-1.2175,-1.2187,-1.2178,-1.2178,-1.2177,-1.2208,-1.2209,-1.221,-1.221,0,-1.2641,-1.262,-1.2598,-1.2568,-1.255,-1.2524,-1.2496,-1.2489,-1.2436,-1.2421,-1.2396,-1.2378,-1.2342,-1.2316,-1.2283,-1.2258,-1.2225,-1.222,-1.2221,-1.2231,-1.2246,-1.2237,-1.2166,-1.2218,-1.2217,-1.2216,-1.2216,-1.2216,-1.2688,-1.2681,-1.2644,-1.262,-1.2595,-1.257,-1.2559,-1.2526,-1.2505,-1.2472,-1.2446,-1.2424,-1.2388,-1.2341,-1.2319,-1.2301,-1.2285,-1.2287,-1.2287,-1.2288,-1.2292,-1.2252,-1.2295,-1.2295,-1.2294,-1.2294,-1.2294,0,-1.2741,-1.2715,-1.2694,-1.2656,-1.2638,-1.261,-1.2578,-1.2564,-1.2545,-1.2515,-1.2493,-1.2465,-1.244,-1.2399,-1.2371,-1.2364,-1.2348,-1.2358,-1.2357,-1.2352,-1.2308,-1.2309,-1.2371,-1.2371,-1.2371,-1.2371,-1.2371,-1.2371,-1.2766,-1.2753,-1.2728,-1.2703,-1.2676,-1.2654,-1.2638,-1.2615,-1.259,-1.2562,-1.2541,-1.2515,-1.248,-1.2449,-1.2425,-1.2413,-1.2404,-1.2419,-1.2402,-1.2362,-1.2355,-1.2348,-1.2348,-1.2417,-1.2418,-1.2446,-1.2447,-1.2447]},{"header":{"parameterUnit":"m.s-1","parameterCategory":1,"la1":30.2991,"la2":30.254,"lo1":-89.0895,"lo2":-89.0444,"dy":0.0017,"dx":0.0017,"nx":28,"ny":28,"refTime":"2024-06-08T03:00:00:Z","depth":0,"parameterNumber":3,"parameterNumberName":"V-component_of_WINDS"},"data":[0,0,0,0,0,0,0,0,0,0,0,0,0,0,0,0,0,0,0,0,0,0,0,0,0,0,0,0,0,0,0,0,0,0,0,0,0,0,0,0,0,0,0,0,0,0,0,0,0,0,0,0,0,0,0,0,0,0,2.8995,2.8995,0,2.903,2.9031,2.9031,2.9089,2.909,2.9091,2.9092,2.9125,2.9125,2.9124,0,0,0,0,0,0,0,0,0,0,0,0,0,2.8973,2.8973,2.8995,2.8995,2.8995,2.903,2.9031,2.9031,2.9088,2.909,2.9091,2.9092,2.9125,2.9125,2.9124,0,0,0,0,0,0,0,0,0,0,0,0,0,2.8993,2.8974,2.8994,2.9028,2.9032,2.903,2.9031,2.9031,2.9088,2.909,2.9091,2.9093,2.9125,2.9125,2.9124,2.9092,0,0,2.9124,2.9124,0,0,0,0,0,0,0,0,2.8992,2.8994,2.9023,2.9026,2.903,2.9057,2.9036,2.9051,2.9088,2.9067,2.9092,2.9094,2.9101,2.9102,2.9106,2.9093,2.9095,2.9124,2.9124,2.9124,2.9124,0,0,0,0,0,0,0,2.899,2.8993,2.9009,2.9023,2.9027,2.9041,2.9045,2.9039,2.9074,2.9069,2.9073,2.9076,2.9103,2.9106,2.9107,2.9095,2.9124,2.9124,2.9124,2.9124,2.9059,2.9058,0,0,0,0,0,0,2.8985,2.8991,2.9008,2.901,2.9014,2.904,2.9045,2.9046,2.9074,2.908,2.9075,2.9079,2.9105,2.9107,2.9108,2.9073,2.9124,2.9124,2.9124,2.9061,2.9059,2.9057,0,0,0,0,0,0,2.8984,2.8985,2.9006,2.9002,2.9005,2.9039,2.904,2.9046,2.9049,2.9079,2.9086,2.9072,2.9106,2.9108,2.9096,2.9075,2.9124,2.9123,2.9063,2.906,2.9058,2.9001,0,0,0,0,0,0,2.8983,2.8985,2.8973,2.9001,2.9005,2.8994,2.9038,2.9046,2.9049,2.9055,2.9078,2.9083,2.9108,2.9096,2.9096,2.9075,2.9123,2.9065,2.9062,2.9059,2.9005,2.8997,2.899,0,0,0,0,0,2.8982,2.8954,2.8972,2.8974,2.8992,2.8992,2.8995,2.9025,2.9047,2.9036,2.9055,2.9082,2.9077,2.9094,2.9095,2.9074,2.9066,2.9063,2.9059,2.9008,2.8998,2.899,0,0,0,0,0,0,2.8921,2.8959,2.8979,2.896,2.8973,2.9002,2.8988,2.9013,2.9019,2.9024,2.906,2.9064,2.9048,2.9059,2.9078,2.9044,2.9076,2.9072,2.9037,2.9028,2.9021,2.9018,2.9123,0,0,0,0,0,2.8906,2.8905,2.8937,2.8917,2.8923,2.8954,2.8956,2.8978,2.8992,2.8998,2.9016,2.9028,2.903,2.903,2.9032,2.9007,2.9013,2.8993,2.8985,2.8979,2.8975,2.8964,2.8956,2.9045,2.9045,2.9045,0,0,2.8874,2.8894,2.8891,2.8905,2.8918,2.8915,2.8958,2.8953,2.8951,2.8996,2.8987,2.9001,2.9017,2.8998,2.8991,2.9007,2.8952,2.8975,2.8969,2.8969,2.896,2.8951,2.8943,2.9043,2.9043,2.9044,0,0,2.8814,2.8829,2.8815,2.8827,2.8847,2.8868,2.8865,2.8891,2.8903,2.8894,2.8928,2.8926,2.8927,2.8937,2.8942,2.8888,2.8914,2.8888,2.8849,2.8838,2.8831,2.8825,2.8806,2.8799,2.8884,2.8884,2.8884,0,2.8771,2.877,2.8804,2.8797,2.8803,2.8845,2.8831,2.8841,2.8859,2.8862,2.8881,2.8885,2.8898,2.8883,2.887,2.8873,2.887,2.8886,2.8829,2.8823,2.8818,2.8801,2.8794,2.8881,2.8881,2.8882,2.8882,0,2.8716,2.8714,2.87,2.8719,2.8723,2.8713,2.8745,2.8745,2.8767,2.8786,2.8777,2.8795,2.8803,2.8801,2.8822,2.8789,2.8799,2.8823,2.8855,2.8806,2.879,2.8784,2.8876,2.8878,2.8879,2.8879,0,0,2.8618,2.8658,2.8652,2.8662,2.8687,2.8686,2.8677,2.8687,2.8686,2.8698,2.8691,2.8692,2.8715,2.8721,2.8744,2.8734,2.8691,2.8759,2.876,2.8746,2.8657,2.8639,2.8631,2.8708,2.8707,2.8706,2.8656,0,2.8564,2.8553,2.8584,2.8565,2.8564,2.8605,2.8598,2.8612,2.863,2.8632,2.8651,2.8652,2.8682,2.8686,2.8678,2.8698,2.8673,2.8702,2.8702,2.8702,2.8697,2.8623,2.8603,2.8555,2.865,2.8649,2.8648,0,2.8499,2.8509,2.849,2.8518,2.8519,2.8512,2.8524,2.8524,2.8542,2.8556,2.8563,2.859,2.8584,2.8615,2.8607,2.8625,2.8627,2.8637,2.8636,2.8637,2.8672,2.8622,2.854,2.8533,2.8639,2.8639,2.864,0,2.843,2.8439,2.8429,2.8436,2.8468,2.8463,2.8475,2.8495,2.8499,2.8508,2.8511,2.852,2.8524,2.853,2.8558,2.8578,2.8546,2.858,2.8558,2.8557,2.8549,2.8549,2.8467,2.8549,2.8549,2.855,2.855,0,2.8366,2.8353,2.8399,2.8393,2.838,2.8416,2.8402,2.8418,2.8435,2.8433,2.8469,2.8465,2.8503,2.8504,2.8526,2.8516,2.8517,2.8528,2.8535,2.8526,2.8524,2.8527,2.8532,2.8548,2.8548,2.8549,2.8549,0,2.8287,2.8317,2.831,2.8342,2.8349,2.8338,2.8365,2.8361,2.8382,2.8378,2.838,2.8412,2.8415,2.8445,2.8453,2.8468,2.845,2.8462,2.8444,2.8449,2.8425,2.8427,2.8342,2.8333,2.8421,2.842,2.8419,0,2.8244,2.8236,2.8267,2.8269,2.8281,2.8283,2.8288,2.8323,2.8326,2.8347,2.834,2.8346,2.8353,2.8356,2.838,2.8387,2.84,2.837,2.8401,2.8393,2.8401,2.8401,2.8401,2.8363,2.8362,2.8361,2.836,0,2.8166,2.8182,2.8188,2.82,2.8205,2.8216,2.8229,2.8228,2.8267,2.8269,2.8273,2.8279,2.8289,2.8295,2.8307,2.832,2.8346,2.8351,2.8346,2.8337,2.8327,2.8333,2.8427,2.8352,2.8353,2.8354,2.8354,2.8354,2.8104,2.8099,2.8121,2.8127,2.8141,2.8152,2.815,2.8172,2.8177,2.8189,2.8209,2.8211,2.823,2.8249,2.8259,2.8261,2.8276,2.8269,2.8268,2.8266,2.8261,2.8327,2.8263,2.8263,2.8263,2.8264,2.8264,0,2.8028,2.8045,2.805,2.8068,2.8073,2.8099,2.8115,2.8117,2.8119,2.8134,2.8141,2.8147,2.8153,2.8178,2.8187,2.8184,2.8196,2.8185,2.8186,2.8189,2.8246,2.825,2.8175,2.8175,2.8175,2.8175,2.8175,2.8175,2.7989,2.7982,2.8001,2.8001,2.8018,2.8021,2.8028,2.8039,2.8052,2.8057,2.8063,2.808,2.81,2.8111,2.8118,2.8125,2.8127,2.8111,2.8122,2.8176,2.8184,2.8192,2.8196,2.8111,2.8111,2.8065,2.8064,2.8064]}]]